Miscellaneous Local Product
Issued by NWS Hastings, NE

Home | Current Version | Previous Version | Graphics & Text | Print | Product List | Glossary On
Versions: 1 2 3 4 5 6 7 8 9 10 11 12 13 14 15 16 17 18 19 20 21 22 23 24 25 26 27 28 29 30 31 32 33 34 35 36 37 38 39 40 41 42 43 44 45 46 47 48 49 50
000
AXUS43 KGID 201102
MISGRI

GID CWA HOURLY WEATHER ROUNDUP
NATIONAL WEATHER SERVICE HASTINGS NE
500 AM CST SAT DEC 20 2014

NOTE: "FAIR" INDICATES FEW OR NO CLOUDS BELOW 12,000 FEET WITH NO
SIGNIFICANT WEATHER AND/OR OBSTRUCTIONS TO VISIBILITY.

...SOUTH CENTRAL NEBRASKA...

CITY           SKY/WX    TMP DP  RH WIND       PRES   REMARKS
GRAND ISLAND   FOG       29  28  96 CALM      30.04S VSB 1/4
HASTINGS       FOG       26  25  96 CALM      30.03S VSB 1/4
KEARNEY        CLEAR     18  18 100 CALM      30.02F
ORD            NOT AVBL
YORK           CLOUDY    32  32 100 CALM      30.05F FOG
AURORA         FOG       31  31 100 CALM      30.03F VSB 3/4
LEXINGTON      CLEAR     23  21  91 W5        30.02F FOG     WCI  17
HOLDREGE       CLEAR     22  19  91 W3        30.02S
HEBRON         FOG       31  30  95 SW5       30.07F VSB 1/2 WCI  27

...NEBRASKA PANHANDLE...

CITY           SKY/WX    TMP DP  RH WIND       PRES   REMARKS
CHADRON        PTCLDY    17  13  84 W6        29.94F WCI   9
ALLIANCE       PTCLDY     8   5  87 W6        29.95F WCI  -2
SCOTTSBLUFF    PTCLDY    14   9  80 CALM      29.97S
SIDNEY         PTCLDY    15  11  83 W5        29.98F WCI   8

...WESTERN AND NORTH CENTRAL NEBRASKA...

CITY           SKY/WX    TMP DP  RH WIND       PRES   REMARKS
VALENTINE      CLEAR     15  12  88 SW6       29.97S WCI   6
AINSWORTH      CLEAR     20  15  82 SW3       29.96F
ONEILL         FOG      N/A N/A N/A CALM      30.00F VSB 1/4
BROKEN BOW     CLEAR     17  14  88 CALM      29.99F
IMPERIAL       CLEAR     20  15  81 W6        30.01F WCI  12
NORTH PLATTE   CLEAR     17  15  92 NW5       30.01F FOG     WCI  10
MCCOOK         CLEAR     22  20  92 SW6       30.03F WCI  14

...EASTERN NEBRASKA...

CITY           SKY/WX    TMP DP  RH WIND       PRES   REMARKS
NORFOLK        CLOUDY    33  31  92 S8        30.04F FOG     WCI  26
SO SIOUX CITY  CLOUDY    32  30  92 S9        30.10S FOG     WCI  24
TEKAMAH        CLOUDY    32  30  92 SE10      30.10F FOG     WCI  24
COLUMBUS       CLOUDY    32  28  86 S5        30.07F WCI  27
ALBION         CLOUDY    32  30  93 SW5       30.04S FOG     WCI  27
OMAHA EPPLEY   FRZ DRZL  32  31  96 S12       30.12F FOG     WCI  23
OFFUTT AFB     PTCLDY    31  31  97 SE7       30.11S FOG     WCI  25
MILLARD        CLOUDY    32  31  96 SE7       30.11F FOG     WCI  26
LINCOLN        CLOUDY    33  32  96 SE3       30.09F FOG
NEBRASKA CITY  CLOUDY    32  32 100 S9        30.11F FOG     WCI  24
BEATRICE       CLOUDY    33  32  96 SW7       30.08S FOG     WCI  27
FALLS CITY     CLOUDY    32  29  88 SE10      30.12F WCI  24

...NORTHERN KANSAS...

CITY           SKY/WX    TMP DP  RH WIND       PRES   REMARKS
GOODLAND       CLEAR     29  26  89 W8        30.02F WCI  21
HILL CITY      PTCLDY    29  25  85 W5        30.05S WCI  24
NORTON         SUNNY     25  21  86 SW8       30.03S WCI  16
PHILLIPSBURG   CLEAR     27  27 100 CALM      30.05S
SMITH CENTER   CLEAR     23  23 100 NW3       30.06S
BELOIT         CLEAR     30  28  93 SW6       30.07S WCI  24
HAYS           CLEAR     27  18  69 SW6       30.06S WCI  20
RUSSELL        CLEAR     30  29  96 SW10      30.06F FOG     WCI  21
CONCORDIA      CLEAR     31  30  96 SW10      30.06F WCI  22
SALINA         CLEAR     27  26  96 S6        30.12S FOG     WCI  20
TOPEKA         CLOUDY    35  31  85 SE5       30.17F WCI  31



USA.gov is the U.S. government's official web portal to all federal, state and local government web resources and services.